QPF
0.00 0.00 0.00 0.00 0.00 0.00 0.00 0.01 0.03 0.05 0.10 0.09 0.04 0.01 0.01 0.00 0.00 0.00 0.00 0.00 0.00 0.00 0.00 0.00 0.00 0.00 0.00 0.00 0.00 0.00 0.00 0.00 0.00 0.01 0.01 0.01 0.02 0.02 0.03 0.04 0.05 0.07 0.09 0.09
0.00 0.00 0.00 0.00 0.00 0.00 0.00 0.00 0.01 0.03 0.05 0.02 0.00 0.00 0.00 0.00 0.00 0.00 0.00 0.00 0.00 0.00 0.00 0.00 0.00 0.00 0.00 0.00 0.00 0.00 0.00 0.00 0.01 0.01 0.01 0.01 0.01 0.02 0.03 0.05 0.06 0.07 0.07 0.08
0.00 0.00 0.01 0.05 0.03 0.01 0.00 0.00 0.01 0.02 0.02 0.00 0.00 0.00 0.00 0.00 0.00 0.00 0.00 0.00 0.00 0.00 0.00 0.00 0.00 0.00 0.00 0.00 0.00 0.00 0.00 0.00 0.00 0.01 0.01 0.01 0.02 0.02 0.04 0.05 0.06 0.06 0.07 0.08
0.00 0.00 0.06 0.07 0.01 0.00 0.00 0.00 0.00 0.00 0.00 0.00 0.00 0.00 0.00 0.00 0.00 0.00 0.01 0.00 0.00 0.00 0.00 0.00 0.00 0.00 0.00 0.00 0.00 0.00 0.00 0.00 0.00 0.00 0.01 0.02 0.03 0.04 0.05 0.05 0.06 0.06 0.05 0.07
0.00 0.01 0.05 0.03 0.00 0.00 0.00 0.00 0.00 0.00 0.00 0.00 0.00 0.00 0.00 0.00 0.00 0.00 0.00 0.00 0.00 0.00 0.00 0.00 0.00 0.00 0.00 0.00 0.00 0.00 0.00 0.00 0.00 0.01 0.02 0.03 0.04 0.06 0.07 0.07 0.06 0.06 0.06 0.07
0.00 0.01 0.03 0.02 0.00 0.00 0.00 0.01 0.00 0.00 0.00 0.00 0.00 0.00 0.00 0.00 0.00 0.00 0.00 0.00 0.00 0.00 0.00 0.00 0.00 0.00 0.00 0.00 0.00 0.00 0.00 0.00 0.00 0.01 0.03 0.04 0.05 0.06 0.08 0.09 0.07 0.07 0.07 0.08
0.00 0.01 0.02 0.00 0.00 0.00 0.00 0.00 0.00 0.00 0.00 0.00 0.00 0.00 0.00 0.00 0.00 0.00 0.00 0.00 0.00 0.00 0.00 0.00 0.00 0.01 0.01 0.01 0.01 0.01 0.01 0.02 0.02 0.03 0.04 0.05 0.07 0.08 0.09 0.09 0.10 0.09 0.08 0.08
0.00 0.00 0.02 0.00 0.00 0.00 0.00 0.00 0.00 0.00 0.00 0.00 0.00 0.00 0.00 0.00 0.00 0.00 0.00 0.00 0.00 0.00 0.00 0.00 0.01 0.02 0.03 0.02 0.02 0.02 0.02 0.03 0.03 0.04 0.03 0.03 0.07 0.08 0.10 0.11 0.10 0.10 0.12 0.10
0.00 0.00 0.00 0.00 0.00 0.00 0.00 0.00 0.00 0.00 0.00 0.00 0.00 0.00 0.00 0.00 0.00 0.00 0.00 0.00 0.00 0.00 0.01 0.01 0.01 0.02 0.03 0.02 0.03 0.03 0.04 0.04 0.05 0.05 0.05 0.05 0.07 0.09 0.10 0.11 0.10 0.10 0.13 0.15
0.00 0.00 0.00 0.00 0.00 0.00 0.00 0.00 0.00 0.00 0.00 0.00 0.00 0.00 0.00 0.00 0.00 0.00 0.00 0.00 0.01 0.01 0.01 0.01 0.01 0.02 0.03 0.03 0.04 0.06 0.06 0.06 0.06 0.07 0.06 0.07 0.10 0.10 0.10 0.11 0.11 0.11 0.12 0.16
0.00 0.00 0.00 0.00 0.00 0.00 0.00 0.00 0.00 0.00 0.00 0.00 0.00 0.00 0.00 0.00 0.00 0.00 0.01 0.01 0.01 0.02 0.03 0.02 0.02 0.02 0.02 0.04 0.06 0.08 0.07 0.07 0.07 0.08 0.08 0.09 0.10 0.10 0.09 0.10 0.09 0.08 0.09 0.14
0.00 0.00 0.00 0.00 0.00 0.00 0.00 0.00 0.00 0.00 0.00 0.00 0.00 0.00 0.00 0.00 0.01 0.01 0.01 0.02 0.02 0.03 0.04 0.03 0.03 0.03 0.03 0.06 0.08 0.09 0.08 0.08 0.09 0.08 0.08 0.09 0.10 0.08 0.05 0.04 0.02 0.02 0.04 0.07
0.00 0.00 0.00 0.00 0.00 0.00 0.00 0.00 0.00 0.00 0.00 0.00 0.00 0.00 0.00 0.01 0.01 0.02 0.02 0.03 0.04 0.04 0.04 0.04 0.05 0.05 0.05 0.07 0.08 0.09 0.09 0.09 0.09 0.08 0.08 0.09 0.10 0.11 0.10 0.07 0.05 0.03 0.02 0.04
0.00 0.00 0.00 0.00 0.00 0.00 0.00 0.00 0.00 0.00 0.00 0.00 0.00 0.00 0.01 0.01 0.02 0.02 0.03 0.05 0.06 0.05 0.05 0.06 0.06 0.06 0.06 0.07 0.08 0.07 0.08 0.08 0.07 0.07 0.07 0.08 0.09 0.11 0.12 0.12 0.10 0.09 0.07 0.06
0.00 0.00 0.00 0.00 0.00 0.00 0.00 0.00 0.00 0.00 0.00 0.00 0.00 0.00 0.01 0.02 0.02 0.03 0.05 0.07 0.08 0.07 0.07 0.07 0.08 0.08 0.08 0.08 0.08 0.07 0.08 0.08 0.07 0.07 0.08 0.08 0.10 0.11 0.12 0.13 0.12 0.12 0.13 0.12
0.00 0.00 0.00 0.00 0.00 0.00 0.00 0.00 0.00 0.00 0.00 0.00 0.00 0.01 0.02 0.02 0.03 0.04 0.06 0.08 0.10 0.10 0.10 0.10 0.11 0.09 0.08 0.07 0.07 0.07 0.07 0.07 0.06 0.07 0.08 0.10 0.12 0.13 0.13 0.13 0.13 0.14 0.15 0.16
0.00 0.00 0.00 0.00 0.00 0.00 0.00 0.00 0.00 0.00 0.00 0.00 0.01 0.01 0.02 0.03 0.04 0.06 0.07 0.08 0.09 0.10 0.12 0.14 0.13 0.10 0.08 0.07 0.08 0.08 0.08 0.07 0.05 0.05 0.07 0.09 0.11 0.13 0.13 0.13 0.14 0.15 0.15 0.15
0.00 0.00 0.00 0.00 0.00 0.00 0.00 0.00 0.00 0.00 0.00 0.00 0.01 0.02 0.03 0.05 0.08 0.10 0.10 0.10 0.09 0.10 0.11 0.12 0.12 0.10 0.08 0.08 0.08 0.08 0.08 0.08 0.09 0.09 0.10 0.10 0.12 0.13 0.13 0.13 0.14 0.15 0.14 0.11
0.00 0.00 0.00 0.00 0.00 0.00 0.00 0.00 0.00 0.00 0.00 0.01 0.01 0.02 0.04 0.06 0.09 0.10 0.11 0.13 0.15 0.15 0.13 0.12 0.11 0.09 0.10 0.08 0.06 0.08 0.08 0.09 0.10 0.10 0.11 0.11 0.11 0.13 0.15 0.14 0.13 0.13 0.12 0.10
0.00 0.00 0.00 0.00 0.00 0.00 0.00 0.00 0.00 0.00 0.00 0.01 0.01 0.03 0.04 0.07 0.09 0.10 0.12 0.13 0.16 0.16 0.15 0.12 0.10 0.10 0.09 0.07 0.05 0.07 0.09 0.09 0.09 0.09 0.10 0.12 0.13 0.14 0.13 0.11 0.11 0.11 0.11 0.09
0.00 0.00 0.00 0.00 0.00 0.00 0.00 0.00 0.00 0.00 0.00 0.01 0.02 0.03 0.06 0.08 0.08 0.10 0.13 0.15 0.14 0.12 0.11 0.10 0.09 0.07 0.05 0.04 0.04 0.07 0.09 0.10 0.10 0.10 0.10 0.11 0.12 0.12 0.12 0.11 0.12 0.12 0.11 0.09
0.00 0.00 0.00 0.00 0.00 0.00 0.00 0.00 0.00 0.00 0.00 0.00 0.01 0.03 0.06 0.08 0.09 0.09 0.10 0.12 0.13 0.11 0.10 0.10 0.08 0.05 0.03 0.03 0.05 0.08 0.10 0.11 0.11 0.11 0.10 0.10 0.10 0.11 0.11 0.11 0.11 0.10 0.09 0.09
0.00 0.00 0.00 0.00 0.00 0.00 0.00 0.00 0.00 0.00 0.00 0.00 0.01 0.04 0.07 0.09 0.10 0.12 0.12 0.10 0.10 0.09 0.09 0.07 0.05 0.04 0.04 0.06 0.09 0.08 0.08 0.09 0.09 0.09 0.09 0.09 0.10 0.12 0.11 0.09 0.09 0.07 0.07 0.08
0.00 0.00 0.00 0.00 0.00 0.00 0.00 0.00 0.00 0.00 0.00 0.00 0.01 0.03 0.07 0.10 0.09 0.08 0.10 0.09 0.08 0.08 0.08 0.05 0.02 0.03 0.05 0.07 0.07 0.07 0.07 0.07 0.07 0.08 0.09 0.10 0.12 0.13 0.11 0.09 0.07 0.06 0.07 0.08
0.00 0.00 0.00 0.00 0.00 0.00 0.00 0.00 0.00 0.00 0.00 0.00 0.01 0.02 0.04 0.08 0.09 0.07 0.06 0.06 0.06 0.07 0.08 0.06 0.03 0.03 0.04 0.06 0.05 0.05 0.06 0.07 0.07 0.08 0.09 0.12 0.13 0.13 0.11 0.09 0.07 0.07 0.08 0.06
0.00 0.00 0.00 0.00 0.00 0.00 0.00 0.00 0.00 0.00 0.00 0.01 0.01 0.01 0.02 0.04 0.05 0.04 0.04 0.04 0.04 0.05 0.06 0.05 0.05 0.04 0.04 0.04 0.05 0.06 0.06 0.08 0.10 0.11 0.12 0.13 0.13 0.12 0.11 0.10 0.09 0.08 0.07 0.06
0.00 0.00 0.00 0.00 0.00 0.00 0.00 0.00 0.00 0.00 0.00 0.01 0.01 0.01 0.01 0.03 0.03 0.03 0.03 0.03 0.04 0.05 0.05 0.04 0.04 0.04 0.04 0.05 0.05 0.06 0.06 0.07 0.09 0.11 0.11 0.12 0.13 0.13 0.12 0.10 0.09 0.08 0.06 0.04
MSLP
1009.18 1009.13 1009.16 1009.30 1009.58 1009.97 1010.44 1010.94 1011.42 1011.83 1012.12 1012.28 1012.31 1012.22 1012.05 1011.83 1011.60 1011.38 1011.20 1011.05 1010.93 1010.82 1010.71 1010.59 1010.44 1010.26 1010.05 1009.82 1009.58 1009.32 1009.06 1008.80 1008.54 1008.28 1008.02 1007.76 1007.50 1007.24 1006.98 1006.72 1006.45 1006.17 1005.89 1005.61
1009.85 1009.88 1009.95 1010.08 1010.30 1010.61 1010.98 1011.39 1011.78 1012.11 1012.36 1012.49 1012.50 1012.39 1012.20 1011.94 1011.66 1011.38 1011.11 1010.87 1010.66 1010.48 1010.30 1010.12 1009.93 1009.72 1009.48 1009.22 1008.94 1008.65 1008.36 1008.08 1007.81 1007.56 1007.33 1007.12 1006.93 1006.74 1006.55 1006.34 1006.12 1005.88 1005.61 1005.34
1010.57 1010.69 1010.82 1010.97 1011.16 1011.40 1011.68 1011.97 1012.24 1012.46 1012.61 1012.65 1012.59 1012.42 1012.16 1011.84 1011.49 1011.12 1010.78 1010.46 1010.18 1009.92 1009.69 1009.47 1009.25 1009.01 1008.75 1008.47 1008.17 1007.87 1007.57 1007.29 1007.03 1006.81 1006.62 1006.46 1006.33 1006.20 1006.06 1005.90 1005.71 1005.48 1005.23 1004.96
1011.29 1011.52 1011.71 1011.88 1012.05 1012.22 1012.40 1012.56 1012.70 1012.78 1012.79 1012.71 1012.53 1012.26 1011.92 1011.51 1011.08 1010.64 1010.23 1009.84 1009.50 1009.20 1008.93 1008.68 1008.44 1008.18 1007.92 1007.63 1007.34 1007.04 1006.75 1006.48 1006.25 1006.06 1005.91 1005.80 1005.71 1005.62 1005.51 1005.38 1005.20 1004.97 1004.72 1004.45
1011.97 1012.27 1012.51 1012.70 1012.84 1012.95 1013.02 1013.06 1013.05 1012.98 1012.84 1012.62 1012.31 1011.93 1011.49 1011.00 1010.50 1010.00 1009.53 1009.10 1008.72 1008.39 1008.10 1007.83 1007.58 1007.33 1007.06 1006.79 1006.50 1006.22 1005.95 1005.71 1005.51 1005.35 1005.24 1005.16 1005.09 1005.02 1004.92 1004.78 1004.60 1004.36 1004.10 1003.82
1012.55 1012.89 1013.15 1013.34 1013.45 1013.49 1013.46 1013.37 1013.22 1013.00 1012.71 1012.36 1011.93 1011.45 1010.93 1010.38 1009.83 1009.30 1008.80 1008.35 1007.95 1007.61 1007.31 1007.03 1006.77 1006.52 1006.26 1006.00 1005.73 1005.47 1005.23 1005.02 1004.84 1004.71 1004.62 1004.56 1004.50 1004.43 1004.32 1004.17 1003.96 1003.70 1003.42 1003.15
1013.01 1013.34 1013.60 1013.75 1013.81 1013.78 1013.66 1013.45 1013.17 1012.83 1012.42 1011.95 1011.44 1010.89 1010.32 1009.74 1009.18 1008.64 1008.14 1007.69 1007.29 1006.94 1006.63 1006.35 1006.09 1005.83 1005.57 1005.32 1005.06 1004.82 1004.60 1004.41 1004.26 1004.15 1004.07 1004.01 1003.95 1003.87 1003.75 1003.57 1003.34 1003.08 1002.79 1002.52
1013.32 1013.62 1013.84 1013.95 1013.94 1013.83 1013.61 1013.31 1012.92 1012.48 1011.98 1011.44 1010.88 1010.30 1009.73 1009.16 1008.62 1008.10 1007.63 1007.19 1006.80 1006.45 1006.13 1005.84 1005.55 1005.28 1005.01 1004.75 1004.50 1004.26 1004.05 1003.88 1003.75 1003.65 1003.58 1003.52 1003.45 1003.35 1003.22 1003.03 1002.80 1002.54 1002.27 1002.03
1013.51 1013.75 1013.91 1013.95 1013.87 1013.68 1013.37 1012.98 1012.52 1012.01 1011.46 1010.90 1010.33 1009.76 1009.22 1008.69 1008.19 1007.72 1007.28 1006.87 1006.49 1006.13 1005.79 1005.47 1005.15 1004.85 1004.55 1004.26 1004.00 1003.76 1003.56 1003.39 1003.26 1003.17 1003.10 1003.04 1002.97 1002.87 1002.74 1002.57 1002.36 1002.13 1001.90 1001.71
1013.60 1013.77 1013.85 1013.82 1013.66 1013.39 1013.01 1012.56 1012.04 1011.49 1010.93 1010.37 1009.83 1009.31 1008.82 1008.36 1007.92 1007.50 1007.09 1006.70 1006.32 1005.94 1005.56 1005.19 1004.82 1004.46 1004.12 1003.80 1003.51 1003.26 1003.05 1002.88 1002.75 1002.66 1002.59 1002.54 1002.48 1002.40 1002.29 1002.15 1001.99 1001.82 1001.67 1001.55
1013.62 1013.73 1013.74 1013.63 1013.39 1013.05 1012.61 1012.11 1011.56 1011.00 1010.45 1009.92 1009.43 1008.97 1008.55 1008.15 1007.77 1007.39 1007.01 1006.61 1006.20 1005.78 1005.35 1004.91 1004.48 1004.05 1003.66 1003.29 1002.97 1002.69 1002.46 1002.29 1002.16 1002.07 1002.01 1001.96 1001.92 1001.87 1001.81 1001.74 1001.65 1001.58 1001.52 1001.50
1013.61 1013.66 1013.60 1013.42 1013.13 1012.73 1012.25 1011.72 1011.16 1010.61 1010.08 1009.60 1009.16 1008.76 1008.40 1008.05 1007.70 1007.34 1006.95 1006.53 1006.07 1005.58 1005.07 1004.55 1004.04 1003.54 1003.08 1002.67 1002.31 1002.00 1001.76 1001.58 1001.45 1001.36 1001.31 1001.28 1001.27 1001.26 1001.26 1001.26 1001.28 1001.30 1001.36 1001.45
1013.58 1013.58 1013.47 1013.25 1012.90 1012.47 1011.96 1011.42 1010.87 1010.34 1009.85 1009.41 1009.02 1008.67 1008.34 1008.02 1007.68 1007.30 1006.88 1006.39 1005.86 1005.28 1004.68 1004.07 1003.47 1002.90 1002.38 1001.92 1001.53 1001.21 1000.95 1000.76 1000.63 1000.55 1000.50 1000.49 1000.51 1000.55 1000.61 1000.70 1000.81 1000.95 1001.12 1001.32
1013.54 1013.51 1013.37 1013.10 1012.74 1012.28 1011.78 1011.24 1010.72 1010.22 1009.77 1009.36 1009.01 1008.69 1008.37 1008.04 1007.67 1007.25 1006.75 1006.18 1005.55 1004.87 1004.17 1003.46 1002.78 1002.15 1001.58 1001.08 1000.67 1000.34 1000.08 999.89 999.76 999.68 999.64 999.64 999.68 999.76 999.88 1000.03 1000.23 1000.47 1000.74 1001.04
1013.48 1013.43 1013.27 1012.99 1012.62 1012.17 1011.67 1011.17 1010.67 1010.21 1009.80 1009.44 1009.10 1008.79 1008.46 1008.10 1007.67 1007.17 1006.58 1005.91 1005.16 1004.38 1003.57 1002.78 1002.03 1001.35 1000.74 1000.23 999.82 999.49 999.23 999.05 998.92 998.84 998.80 998.81 998.86 998.96 999.11 999.32 999.58 999.89 1000.24 1000.62
1013.41 1013.35 1013.17 1012.89 1012.53 1012.09 1011.63 1011.16 1010.71 1010.30 1009.93 1009.59 1009.27 1008.95 1008.60 1008.18 1007.68 1007.08 1006.39 1005.60 1004.75 1003.87 1002.97 1002.11 1001.31 1000.60 999.98 999.47 999.06 998.74 998.50 998.32 998.20 998.12 998.07 998.07 998.12 998.22 998.39 998.62 998.91 999.26 999.66 1000.09
1013.33 1013.25 1013.07 1012.80 1012.45 1012.05 1011.62 1011.20 1010.80 1010.44 1010.11 1009.80 1009.49 1009.15 1008.75 1008.28 1007.70 1007.01 1006.21 1005.33 1004.38 1003.41 1002.44 1001.53 1000.70 999.98 999.37 998.87 998.48 998.19 997.97 997.80 997.68 997.58 997.53 997.51 997.53 997.62 997.77 998.00 998.30 998.66 999.07 999.52
1013.25 1013.16 1012.97 1012.71 1012.38 1012.01 1011.63 1011.25 1010.91 1010.59 1010.30 1010.01 1009.70 1009.35 1008.92 1008.39 1007.74 1006.97 1006.09 1005.12 1004.10 1003.06 1002.05 1001.12 1000.28 999.56 998.96 998.49 998.13 997.86 997.66 997.50 997.38 997.27 997.19 997.14 997.14 997.19 997.31 997.51 997.78 998.13 998.54 998.98
1013.19 1013.08 1012.88 1012.62 1012.31 1011.96 1011.62 1011.30 1011.00 1010.72 1010.46 1010.20 1009.90 1009.54 1009.08 1008.50 1007.80 1006.97 1006.03 1005.01 1003.94 1002.87 1001.84 1000.90 1000.06 999.36 998.79 998.34 998.01 997.76 997.57 997.41 997.27 997.15 997.04 996.96 996.91 996.92 997.00 997.16 997.40 997.72 998.09 998.51
1013.16 1013.03 1012.82 1012.55 1012.24 1011.92 1011.61 1011.31 1011.05 1010.81 1010.58 1010.34 1010.05 1009.69 1009.21 1008.62 1007.89 1007.02 1006.05 1005.00 1003.91 1002.83 1001.80 1000.86 1000.04 999.35 998.80 998.37 998.05 997.81 997.61 997.45 997.30 997.15 997.01 996.89 996.80 996.77 996.81 996.92 997.12 997.40 997.74 998.12
1013.15 1013.00 1012.77 1012.50 1012.19 1011.88 1011.58 1011.31 1011.07 1010.86 1010.65 1010.43 1010.15 1009.79 1009.32 1008.72 1007.98 1007.11 1006.14 1005.08 1004.00 1002.92 1001.90 1000.97 1000.16 999.48 998.94 998.51 998.19 997.93 997.72 997.54 997.36 997.18 997.01 996.86 996.74 996.67 996.67 996.76 996.92 997.16 997.47 997.82
1013.16 1012.99 1012.74 1012.45 1012.14 1011.83 1011.53 1011.27 1011.05 1010.86 1010.67 1010.46 1010.20 1009.86 1009.40 1008.82 1008.09 1007.24 1006.28 1005.25 1004.18 1003.12 1002.12 1001.20 1000.39 999.71 999.15 998.71 998.35 998.07 997.83 997.61 997.39 997.19 996.99 996.81 996.67 996.58 996.56 996.62 996.77 996.99 997.27 997.59
1013.15 1012.96 1012.71 1012.41 1012.08 1011.77 1011.48 1011.22 1011.01 1010.83 1010.65 1010.47 1010.23 1009.91 1009.48 1008.92 1008.23 1007.41 1006.49 1005.49 1004.45 1003.42 1002.43 1001.51 1000.70 1000.00 999.41 998.92 998.53 998.19 997.90 997.64 997.39 997.15 996.93 996.74 996.59 996.50 996.48 996.53 996.67 996.88 997.15 997.46
1013.09 1012.90 1012.64 1012.34 1012.01 1011.69 1011.40 1011.16 1010.95 1010.78 1010.63 1010.46 1010.25 1009.96 1009.57 1009.05 1008.41 1007.64 1006.76 1005.81 1004.81 1003.80 1002.83 1001.91 1001.08 1000.35 999.72 999.19 998.73 998.34 998.00 997.69 997.40 997.14 996.91 996.71 996.57 996.48 996.47 996.54 996.69 996.90 997.17 997.48
1012.96 1012.78 1012.53 1012.23 1011.92 1011.61 1011.33 1011.09 1010.90 1010.75 1010.62 1010.48 1010.30 1010.05 1009.70 1009.24 1008.65 1007.94 1007.12 1006.22 1005.26 1004.29 1003.33 1002.42 1001.58 1000.82 1000.14 999.55 999.04 998.59 998.20 997.85 997.53 997.25 997.02 996.83 996.70 996.64 996.66 996.75 996.91 997.14 997.41 997.72
1012.76 1012.60 1012.38 1012.10 1011.80 1011.52 1011.26 1011.05 1010.88 1010.76 1010.65 1010.55 1010.41 1010.20 1009.91 1009.50 1008.98 1008.34 1007.59 1006.75 1005.84 1004.91 1003.99 1003.09 1002.24 1001.45 1000.74 1000.11 999.56 999.06 998.63 998.25 997.92 997.63 997.41 997.24 997.13 997.10 997.14 997.26 997.44 997.68 997.96 998.27
1012.51 1012.39 1012.20 1011.95 1011.69 1011.44 1011.22 1011.04 1010.91 1010.82 1010.76 1010.69 1010.59 1010.44 1010.20 1009.87 1009.41 1008.84 1008.17 1007.40 1006.57 1005.69 1004.81 1003.94 1003.10 1002.32 1001.60 1000.95 1000.38 999.86 999.41 999.02 998.69 998.41 998.20 998.05 997.97 997.97 998.04 998.17 998.37 998.62 998.90 999.20
Thickness
5764 5774 5778 5773 5768 5763 5749 5737 5721 5713 5701 5692 5691 5686 5682 5677 5671 5665 5661 5656 5650 5643 5636 5632 5627 5623 5619 5615 5612 5609 5606 5603 5602 5602 5602 5602 5603 5605 5607 5610 5614 5618 5621 5626
5756 5771 5770 5758 5750 5746 5735 5725 5715 5708 5696 5695 5688 5681 5672 5667 5660 5654 5649 5643 5635 5628 5621 5616 5610 5606 5601 5597 5594 5591 5587 5585 5584 5584 5584 5585 5586 5587 5590 5592 5594 5598 5602 5607
5741 5761 5759 5726 5724 5722 5715 5711 5701 5688 5685 5683 5673 5666 5661 5655 5649 5642 5634 5625 5617 5611 5605 5600 5594 5589 5584 5581 5577 5573 5571 5569 5568 5567 5567 5568 5570 5571 5572 5573 5576 5579 5583 5588
5740 5742 5710 5709 5725 5717 5705 5701 5696 5686 5676 5668 5661 5658 5653 5647 5637 5625 5617 5609 5602 5596 5590 5585 5580 5575 5571 5568 5563 5560 5558 5557 5556 5555 5555 5555 5555 5556 5555 5556 5557 5560 5565 5571
5730 5722 5711 5706 5709 5702 5689 5684 5679 5668 5661 5658 5653 5645 5643 5636 5623 5611 5604 5597 5590 5584 5578 5573 5568 5564 5560 5557 5554 5551 5549 5549 5549 5548 5548 5547 5546 5545 5545 5544 5545 5548 5552 5558
5723 5706 5692 5690 5701 5703 5689 5675 5666 5658 5648 5642 5634 5621 5621 5618 5608 5601 5592 5584 5577 5572 5567 5562 5559 5555 5551 5549 5547 5544 5544 5543 5543 5543 5542 5541 5541 5540 5539 5539 5539 5541 5545 5549
5711 5701 5693 5693 5696 5689 5661 5651 5657 5650 5640 5629 5618 5609 5609 5606 5597 5587 5579 5572 5566 5560 5555 5551 5549 5545 5542 5540 5539 5539 5539 5539 5539 5539 5538 5538 5538 5537 5536 5535 5535 5537 5539 5543
5698 5687 5678 5691 5683 5663 5653 5655 5648 5639 5630 5620 5613 5607 5600 5592 5584 5576 5568 5562 5556 5550 5547 5543 5540 5535 5533 5532 5532 5532 5532 5532 5533 5533 5533 5535 5535 5534 5533 5532 5532 5533 5535 5538
5690 5684 5689 5686 5674 5667 5657 5646 5637 5629 5621 5612 5604 5597 5590 5582 5574 5567 5559 5553 5547 5541 5537 5534 5530 5526 5523 5524 5523 5523 5523 5524 5525 5526 5527 5528 5528 5529 5530 5530 5530 5532 5533 5535
5688 5689 5685 5678 5670 5660 5650 5639 5631 5622 5614 5604 5595 5588 5580 5573 5565 5557 5550 5543 5537 5531 5526 5522 5519 5515 5513 5514 5513 5513 5514 5515 5517 5518 5520 5522 5523 5525 5526 5527 5528 5529 5530 5531
5682 5679 5673 5669 5659 5651 5643 5634 5624 5616 5606 5596 5587 5580 5571 5563 5555 5548 5540 5533 5526 5520 5515 5512 5509 5507 5505 5504 5503 5503 5504 5506 5508 5511 5513 5515 5518 5520 5521 5523 5524 5524 5527 5528
5667 5667 5658 5653 5650 5644 5633 5624 5617 5608 5600 5591 5581 5572 5563 5555 5547 5538 5530 5523 5517 5512 5507 5504 5501 5499 5498 5496 5495 5495 5496 5499 5501 5503 5507 5510 5514 5516 5518 5518 5519 5519 5520 5521
5672 5666 5658 5651 5645 5637 5627 5619 5611 5601 5592 5583 5575 5565 5555 5547 5538 5530 5522 5516 5509 5504 5499 5497 5494 5493 5493 5491 5490 5490 5491 5492 5494 5497 5501 5505 5508 5511 5514 5515 5516 5516 5516 5516
5671 5661 5650 5645 5637 5630 5621 5613 5605 5596 5586 5576 5567 5557 5548 5539 5531 5523 5516 5509 5504 5499 5495 5492 5489 5489 5488 5487 5486 5486 5487 5489 5491 5494 5498 5501 5505 5508 5511 5513 5514 5517 5515 5513
5664 5656 5646 5640 5633 5624 5616 5607 5598 5589 5580 5570 5560 5550 5541 5532 5525 5518 5512 5506 5501 5497 5494 5490 5488 5487 5485 5484 5484 5485 5486 5487 5490 5492 5496 5499 5503 5506 5509 5511 5513 5515 5515 5512
5659 5651 5644 5634 5625 5618 5609 5600 5590 5581 5573 5563 5554 5545 5536 5528 5520 5514 5509 5504 5499 5496 5493 5490 5488 5487 5486 5486 5486 5486 5488 5489 5491 5493 5497 5500 5503 5506 5508 5510 5512 5514 5515 5515
5650 5642 5634 5626 5619 5611 5602 5593 5584 5575 5566 5557 5549 5541 5533 5525 5519 5513 5508 5503 5498 5496 5493 5490 5489 5490 5490 5489 5489 5490 5491 5493 5494 5496 5499 5503 5505 5507 5509 5511 5513 5516 5516 5518
5649 5640 5631 5622 5613 5606 5597 5589 5580 5570 5561 5553 5545 5537 5530 5522 5516 5511 5508 5504 5502 5499 5496 5494 5493 5493 5494 5495 5494 5495 5495 5496 5498 5500 5502 5505 5507 5509 5511 5513 5516 5518 5519 5519
5646 5637 5628 5619 5610 5602 5593 5584 5576 5568 5560 5552 5544 5536 5528 5521 5515 5511 5508 5506 5504 5501 5500 5499 5496 5498 5500 5500 5499 5501 5503 5504 5505 5506 5507 5509 5512 5514 5516 5518 5520 5523 5525 5525
5642 5633 5625 5616 5608 5598 5590 5582 5574 5567 5559 5551 5544 5537 5530 5524 5519 5515 5511 5508 5505 5503 5502 5503 5504 5504 5505 5506 5505 5509 5511 5512 5513 5514 5515 5517 5519 5521 5523 5525 5528 5531 5533 5535
5636 5629 5620 5612 5604 5596 5588 5580 5573 5566 5559 5551 5543 5536 5530 5526 5522 5519 5516 5515 5513 5510 5510 5511 5513 5512 5512 5510 5513 5517 5520 5522 5523 5524 5525 5527 5528 5529 5531 5534 5537 5540 5543 5546
5631 5623 5616 5608 5601 5593 5587 5580 5573 5566 5559 5552 5545 5538 5533 5530 5527 5524 5521 5518 5518 5516 5519 5522 5521 5518 5518 5520 5527 5529 5531 5533 5534 5535 5536 5537 5539 5541 5543 5546 5548 5551 5554 5556
5627 5619 5612 5605 5599 5592 5587 5580 5573 5565 5558 5552 5546 5540 5535 5531 5529 5527 5527 5526 5526 5524 5528 5530 5528 5528 5528 5535 5539 5541 5543 5544 5545 5546 5547 5549 5551 5553 5555 5556 5558 5560 5562 5565
5624 5617 5610 5604 5598 5592 5585 5579 5572 5566 5558 5553 5547 5541 5537 5536 5535 5532 5531 5532 5533 5533 5538 5538 5538 5540 5543 5548 5550 5551 5553 5554 5555 5556 5558 5560 5561 5563 5564 5566 5568 5569 5571 5574
5622 5615 5610 5602 5596 5590 5584 5579 5573 5566 5559 5553 5548 5544 5540 5538 5536 5536 5537 5539 5540 5542 5546 5548 5548 5550 5555 5557 5559 5561 5562 5562 5564 5565 5567 5569 5570 5572 5573 5575 5577 5579 5581 5583
5620 5615 5608 5601 5594 5588 5583 5576 5570 5564 5557 5551 5548 5545 5542 5541 5541 5541 5543 5544 5545 5547 5551 5553 5555 5558 5560 5562 5564 5566 5568 5570 5572 5573 5575 5577 5579 5580 5582 5584 5585 5587 5588 5589
5619 5614 5606 5599 5593 5586 5579 5574 5567 5561 5555 5548 5546 5544 5542 5542 5542 5542 5544 5546 5548 5550 5552 5555 5558 5560 5563 5565 5567 5569 5571 5573 5576 5578 5580 5582 5584 5586 5588 5590 5591 5591 5592 5593